STARLINK-30330 (57636 NORAD) Tracking and Keplerian Element Data

This shows tracking and keplerian element data for the satellite.

Feedback or suggestion? Click here.




ElementValue
Catalog57636
NameSTARLINK-30330
Epoch Orbit2385
Epoch Day13.15663794
Epoch Year2024
RAAN48.7037
Inclination43.0034
Eccentricity8.46E-05
Argument of Perigee258.39
Mean Anonmoly101.6847
Mean Motion15.02532745
Decay Rate-6.4E-06
L11 57636U 23122E 24013.15663794 -.00000640 00000+0 -32355-4 0 9991
L22 57636 43.0034 48.7037 0000846 258.3900 101.6847 15.02532745 23856



Live tracking and technical data element details for STARLINK-30330 (NORAD 57636). STARLINK-30330 can be tracked NOW for your location showing map with azimuth and elevation plus other details from your city location.







IsCatalogInMostPopularTable: catalog: 57636, numindb: 27
Update: records affected: 1



GetName: 57636 STARLINK-30330

Hit Count: updated at: Thu, 29 Feb 2024 13:03:03 GMT